TimeCDT,TemperatureF,Dew PointF,Humidity,Sea Level PressureIn,VisibilityMPH,Wind Direction,Wind SpeedMPH,Gust SpeedMPH,PrecipitationIn,Events,Conditions,WindDirDegrees,DateUTC
12:51 AM,88.0,64.0,45,29.81,10.0,SSE,12.7,24.2,N/A,,Clear,150,2013-06-27 05:51:00
1:51 AM,86.0,62.1,44,29.81,10.0,SSE,12.7,21.9,N/A,,Clear,160,2013-06-27 06:51:00
2:51 AM,84.0,62.1,47,29.81,10.0,SSE,9.2,-,N/A,,Clear,160,2013-06-27 07:51:00
3:51 AM,82.0,61.0,49,29.81,10.0,South,8.1,-,N/A,,Clear,170,2013-06-27 08:51:00
4:51 AM,81.0,62.1,52,29.82,10.0,South,6.9,-,N/A,,Clear,170,2013-06-27 09:51:00
5:51 AM,79.0,62.1,56,29.85,10.0,East,4.6,-,N/A,,Clear,80,2013-06-27 10:51:00
6:51 AM,78.1,61.0,56,29.86,10.0,ESE,6.9,-,N/A,,Clear,120,2013-06-27 11:51:00
7:51 AM,77.0,62.1,60,29.89,10.0,SE,8.1,-,N/A,,Clear,140,2013-06-27 12:51:00
8:51 AM,82.9,63.0,51,29.89,10.0,South,8.1,-,N/A,,Clear,190,2013-06-27 13:51:00
9:51 AM,89.1,62.1,40,29.90,10.0,SSW,9.2,-,N/A,,Clear,210,2013-06-27 14:51:00
10:51 AM,93.0,60.1,33,29.88,10.0,SW,11.5,-,N/A,,Clear,230,2013-06-27 15:51:00
11:51 AM,98.1,61.0,29,29.88,10.0,South,9.2,-,N/A,,Clear,180,2013-06-27 16:51:00
12:51 PM,100.9,57.0,23,29.88,10.0,South,10.4,17.3,N/A,,Clear,170,2013-06-27 17:51:00
1:51 PM,102.9,54.0,20,29.86,10.0,SSW,13.8,-,N/A,,Clear,200,2013-06-27 18:51:00
2:51 PM,105.1,52.0,17,29.85,10.0,South,13.8,19.6,N/A,,Clear,180,2013-06-27 19:51:00
3:51 PM,105.1,48.9,15,29.84,10.0,SSE,11.5,20.7,N/A,,Clear,160,2013-06-27 20:51:00
4:51 PM,107.1,48.9,14,29.81,10.0,South,10.4,17.3,N/A,,Clear,170,2013-06-27 21:51:00
5:51 PM,106.0,52.0,17,29.78,10.0,South,13.8,25.3,N/A,,Clear,170,2013-06-27 22:51:00
6:51 PM,104.0,51.1,17,29.78,10.0,South,17.3,25.3,N/A,,Clear,180,2013-06-27 23:51:00
7:51 PM,102.0,52.0,19,29.77,10.0,SSE,17.3,24.2,N/A,,Clear,160,2013-06-28 00:51:00
8:51 PM,98.1,52.0,21,29.82,10.0,SSE,16.1,20.7,N/A,,Clear,150,2013-06-28 01:51:00
9:10 PM,91.4,51.8,26,30.04,10.0,NE,27.6,39.1,N/A,Thunderstorm,Clear,40,2013-06-28 02:10:00
9:23 PM,89.6,53.6,29,30.07,10.0,NE,23.0,34.5,N/A,Thunderstorm,Partly Cloudy,50,2013-06-28 02:23:00
9:40 PM,84.2,55.4,37,30.09,10.0,NE,21.9,31.1,0.00,Rain,Light Rain,50,2013-06-28 02:40:00
9:48 PM,84.2,53.6,35,-9999,4.0,NNW,56.4,94.4,0.11,Thunderstorm,Unknown,340,2013-06-28 02:48:00
9:51 PM,84.0,50.0,31,-9999,2.0,ESE,18.4,94.4,0.19,Rain-Thunderstorm,Light Thunderstorms and Rain,110,2013-06-28 02:51:00